BAW24J EGLL-LPPT

Flight info

Callsign BAW24J
Flight time N/A
Altitude 39000
Route GASGU N866 SAM M195 MARUK/N0485F410 M195 LORKU DCT POZOF DCT BALDA DCT ABUPI DCT XAMAX
Aircraft B772/H-SDE2E3FGHIJ5LORVWXY/LB1D1

Departure

Time 2026-05-07 18:49
Airport London Heathrow Airport (EGLL)

Arrival

Time N/A
Airport Lisbon Humberto Delgado Airport (LPPT)
Time Latitude Longitude Altitude Speed Heading
2026-05-07 18:32 51.47224 -0.47498 94 ft 0 kts 270°
2026-05-07 18:39 51.47224 -0.47495 91 ft 2 kts 269°
2026-05-07 18:39 51.47225 -0.47453 93 ft 4 kts 263°
2026-05-07 18:39 51.47230 -0.47411 92 ft 4 kts 252°
2026-05-07 18:39 51.47240 -0.47372 92 ft 4 kts 229°
2026-05-07 18:40 51.47258 -0.47354 92 ft 1 kts 180°
2026-05-07 18:40 51.47258 -0.47353 92 ft 0 kts 180°
2026-05-07 18:41 51.47222 -0.47353 92 ft 10 kts 180°
2026-05-07 18:42 51.47151 -0.47353 91 ft 10 kts 180°
2026-05-07 18:42 51.47081 -0.47352 91 ft 10 kts 180°
2026-05-07 18:42 51.47011 -0.47352 91 ft 10 kts 180°
2026-05-07 18:42 51.46941 -0.47352 91 ft 10 kts 180°
2026-05-07 18:43 51.46871 -0.47351 91 ft 10 kts 180°
2026-05-07 18:43 51.46802 -0.47350 91 ft 10 kts 179°
2026-05-07 18:43 51.46732 -0.47348 93 ft 10 kts 179°
2026-05-07 18:43 51.46667 -0.47379 93 ft 10 kts 229°
2026-05-07 18:44 51.46656 -0.47488 93 ft 10 kts 268°
2026-05-07 18:44 51.46655 -0.47602 93 ft 10 kts 269°
2026-05-07 18:44 51.46655 -0.47714 93 ft 10 kts 270°
2026-05-07 18:44 51.46654 -0.47827 92 ft 10 kts 270°
2026-05-07 18:45 51.46654 -0.47940 92 ft 10 kts 270°
2026-05-07 18:45 51.46654 -0.48017 91 ft 0 kts 270°
2026-05-07 18:45 51.46654 -0.48044 91 ft 12 kts 270°
2026-05-07 18:46 51.46653 -0.48252 91 ft 20 kts 270°
2026-05-07 18:46 51.46652 -0.48476 91 ft 20 kts 270°
2026-05-07 18:46 51.46652 -0.48663 91 ft 12 kts 270°
2026-05-07 18:46 51.46603 -0.48761 94 ft 12 kts 206°
2026-05-07 18:47 51.46522 -0.48775 94 ft 12 kts 159°
2026-05-07 18:47 51.46480 -0.48667 95 ft 12 kts 98°
2026-05-07 18:47 51.46478 -0.48602 93 ft 0 kts 89°
2026-05-07 18:47 51.46478 -0.48600 93 ft 0 kts 89°
2026-05-07 18:48 51.46478 -0.48595 92 ft 1 kts 89°
2026-05-07 18:48 51.46478 -0.48586 92 ft 1 kts 89°
2026-05-07 18:48 51.46478 -0.48543 91 ft 17 kts 89°
2026-05-07 18:48 51.46481 -0.47766 93 ft 127 kts 90°
2026-05-07 18:49 51.46505 -0.45800 252 ft 209 kts 89°
2026-05-07 18:49 51.46552 -0.43518 1834 ft 205 kts 91°
2026-05-07 18:49 51.46558 -0.41135 3346 ft 210 kts 94°
2026-05-07 18:49 51.46060 -0.38894 4336 ft 225 kts 129°
2026-05-07 18:50 51.44787 -0.37362 5008 ft 234 kts 143°
2026-05-07 18:50 51.43657 -0.35427 5540 ft 242 kts 129°
2026-05-07 18:50 51.42384 -0.33558 5835 ft 262 kts 149°
2026-05-07 18:50 51.40622 -0.32563 5982 ft 269 kts 175°
2026-05-07 18:51 51.38804 -0.33054 6006 ft 268 kts 205°
2026-05-07 18:51 51.37317 -0.34779 6006 ft 269 kts 223°
2026-05-07 18:51 51.35940 -0.36857 6011 ft 273 kts 223°
2026-05-07 18:51 51.34540 -0.38894 6002 ft 272 kts 221°
2026-05-07 18:52 51.33132 -0.40904 6004 ft 271 kts 221°
2026-05-07 18:52 51.31765 -0.42950 5996 ft 269 kts 228°
2026-05-07 18:52 51.30683 -0.45385 6004 ft 270 kts 241°
2026-05-07 18:52 51.29882 -0.48099 6002 ft 271 kts 250°
2026-05-07 18:53 51.29316 -0.50976 6004 ft 272 kts 254°
2026-05-07 18:53 51.28807 -0.53895 6003 ft 273 kts 254°
2026-05-07 18:53 51.28294 -0.56831 6003 ft 274 kts 255°
2026-05-07 18:53 51.27759 -0.59754 6003 ft 275 kts 253°
2026-05-07 18:54 51.27198 -0.62670 5998 ft 275 kts 253°
2026-05-07 18:54 51.26633 -0.65583 6001 ft 274 kts 253°
2026-05-07 18:54 51.26069 -0.68487 5999 ft 274 kts 253°
2026-05-07 18:54 51.25505 -0.71386 5999 ft 273 kts 253°
2026-05-07 18:55 51.24942 -0.74278 5997 ft 273 kts 253°
2026-05-07 18:55 51.24381 -0.77162 5999 ft 272 kts 252°
2026-05-07 18:55 51.23820 -0.80044 5998 ft 272 kts 253°
2026-05-07 18:55 51.23259 -0.82921 6039 ft 272 kts 253°
2026-05-07 18:56 51.22696 -0.85811 6867 ft 271 kts 253°
2026-05-07 18:56 51.22137 -0.88671 8080 ft 270 kts 253°
2026-05-07 18:56 51.21575 -0.91533 9216 ft 271 kts 252°
2026-05-07 18:56 51.21009 -0.94402 10294 ft 271 kts 251°
2026-05-07 18:57 51.20107 -0.97032 10868 ft 285 kts 230°
2026-05-07 18:57 51.18634 -0.99375 11085 ft 315 kts 224°
2026-05-07 18:57 51.17029 -1.01789 11630 ft 332 kts 224°
2026-05-07 18:57 51.15319 -1.04357 12538 ft 341 kts 224°
2026-05-07 18:58 51.13581 -1.06981 13558 ft 347 kts 223°
2026-05-07 18:58 51.11821 -1.09649 14484 ft 352 kts 223°
2026-05-07 18:58 51.10044 -1.12354 15021 ft 355 kts 224°
2026-05-07 18:58 51.08251 -1.15088 15044 ft 358 kts 224°
2026-05-07 18:59 51.06458 -1.17824 15049 ft 357 kts 224°
2026-05-07 18:59 51.04671 -1.20550 15048 ft 356 kts 224°
2026-05-07 18:59 51.02886 -1.23271 15051 ft 356 kts 224°
2026-05-07 18:59 51.01101 -1.25991 15051 ft 356 kts 224°
2026-05-07 19:00 50.99306 -1.28721 15457 ft 358 kts 224°
2026-05-07 19:00 50.97497 -1.31467 16471 ft 360 kts 224°
2026-05-07 19:00 50.95646 -1.34173 17413 ft 364 kts 220°
2026-05-07 19:00 50.93601 -1.36586 18284 ft 369 kts 214°
2026-05-07 19:01 50.91441 -1.38835 18990 ft 374 kts 214°
2026-05-07 19:01 50.89244 -1.41098 19746 ft 378 kts 213°
2026-05-07 19:01 50.87027 -1.43381 20513 ft 381 kts 213°
2026-05-07 19:01 50.84801 -1.45679 21254 ft 384 kts 213°
2026-05-07 19:02 50.82551 -1.48007 21971 ft 388 kts 213°
2026-05-07 19:02 50.80269 -1.50372 22879 ft 395 kts 213°
2026-05-07 19:02 50.77961 -1.52765 23881 ft 398 kts 213°
2026-05-07 19:02 50.75634 -1.55176 24714 ft 402 kts 213°
2026-05-07 19:03 50.73279 -1.57615 25466 ft 407 kts 213°
2026-05-07 19:03 50.70896 -1.60080 26181 ft 412 kts 213°
2026-05-07 19:03 50.68484 -1.62572 26896 ft 416 kts 213°
2026-05-07 19:03 50.66044 -1.65090 27550 ft 421 kts 213°
2026-05-07 19:04 50.63576 -1.67633 28214 ft 425 kts 213°
2026-05-07 19:04 50.61094 -1.70187 28904 ft 427 kts 213°
2026-05-07 19:04 50.58596 -1.72755 29505 ft 431 kts 213°
2026-05-07 19:04 50.56065 -1.75355 30023 ft 436 kts 213°
2026-05-07 19:05 50.53508 -1.77975 30477 ft 440 kts 213°
2026-05-07 19:05 50.50932 -1.80606 30932 ft 443 kts 213°
2026-05-07 19:05 50.48347 -1.83232 31637 ft 438 kts 213°
2026-05-07 19:05 50.45824 -1.85787 32731 ft 426 kts 213°
2026-05-07 19:06 50.43364 -1.88276 33736 ft 417 kts 213°
2026-05-07 19:06 50.38416 -1.93282 34055 ft 436 kts 213°
2026-05-07 19:06 50.35839 -1.95884 34109 ft 445 kts 213°
2026-05-07 19:07 50.30597 -2.01170 34210 ft 460 kts 213°
2026-05-07 19:07 50.27892 -2.03892 34352 ft 462 kts 213°
2026-05-07 19:07 50.25189 -2.06607 34750 ft 460 kts 213°
2026-05-07 19:08 50.22495 -2.09288 35048 ft 460 kts 212°
2026-05-07 19:08 50.19751 -2.11972 35016 ft 468 kts 212°
2026-05-07 19:08 50.14164 -2.17388 35036 ft 478 kts 212°
2026-05-07 19:09 50.08475 -2.22904 35012 ft 485 kts 212°
2026-05-07 19:09 50.02756 -2.28448 35028 ft 490 kts 212°
2026-05-07 19:10 49.96951 -2.34060 35018 ft 493 kts 212°
2026-05-07 19:10 49.90943 -2.39245 35018 ft 495 kts 205°
2026-05-07 19:11 49.87837 -2.41394 35264 ft 485 kts 204°
2026-05-07 19:11 49.84756 -2.43505 35117 ft 479 kts 204°
2026-05-07 19:11 49.81760 -2.45557 35060 ft 467 kts 204°
2026-05-07 19:11 49.78769 -2.47615 35038 ft 473 kts 205°
2026-05-07 19:12 49.72723 -2.51798 35521 ft 471 kts 205°
2026-05-07 19:12 49.69753 -2.53856 36031 ft 466 kts 205°